Flag for U.S.A. Weather past 2 weeks in Modesto, California, U.S.A.

Now
74 °F

Sunny.


Feels Like: 77 °F
Forecast: 63 / 88 °F
Wind: 12 mph from Northwest

Location: Modesto City-County-Sham Field

Current Time: Aug 3, 2015 at 10:19:23 AM

Latest Report: Aug 3, 2015 at 9:53 AM


Visibility: 10 mi

Pressure: 29.91 "Hg

Humidity: 52%

Dew point: 55 °F

Location of ModestoLocation

Historic Weather in Modesto — Graph

°F

Modesto temperature yesterday

Maximum temperature yesterday: 93 °F (at 4:53 PM)
Minimum temperature yesterday: 66 °F (at 5:53 AM)
Average temperature yesterday: 78 °F

Past Weeks' High & Low Weather Summary

 TemperatureHumidityPressure
High105 °F (Jul 29, 4:53 PM)73% (Aug 3, 5:53 AM)30.08 "Hg (Aug 3, 5:53 AM)
Low60 °F (Jul 24, 4:53 AM)10% (Jul 22, 4:53 PM)29.73 "Hg (Jul 21, 4:53 PM)
Average81 °F38%29.89 "Hg
* Reported Jul 19 8:53 AM — Aug 3 8:53 AM, Modesto, Weather by CustomWeather, © 2015

Note: Actual official high and low records may vary slightly from our data, if they occured in-between our weather recording intervals... More about our weather records

Advertising

Modesto weather history for previous 24 hours

 ConditionsComfort  
Time TempWeatherWind HumidityBarometerVisibility
8:53 AM
Mon, Aug 3
69 °FSunny.10 mph61%29.92 "Hg10 mi
7:53 AM67 °FSunny.10 mph66%29.91 "Hg10 mi
6:53 AM64 °FClear.N/A73%29.89 "Hg10 mi
5:53 AM64 °FClear.N/A73%29.88 "Hg10 mi
4:53 AM64 °FClear.12 mph70%29.86 "Hg10 mi
3:53 AM65 °FClear.10 mph68%29.86 "Hg10 mi
2:53 AM66 °FClear.8 mph63%29.85 "Hg10 mi
1:53 AM67 °FClear.9 mph61%29.85 "Hg10 mi
12:53 AM69 °FClear.9 mph57%29.84 "Hg10 mi
11:53 PM
Sun, Aug 2
72 °FClear.9 mph43%29.84 "Hg10 mi
10:53 PM75 °FClear.10 mph36%29.83 "Hg10 mi
9:53 PM77 °FClear.12 mph32%29.83 "Hg10 mi
8:53 PM80 °FSunny.9 mph30%29.80 "Hg10 mi
7:53 PM85 °FSunny.13 mph25%29.80 "Hg10 mi
6:53 PM89 °FSunny.16 mph24%29.79 "Hg10 mi
5:53 PM92 °FSunny.16 mph29%29.79 "Hg10 mi
4:53 PM93 °FSunny.15 mph30%29.80 "Hg10 mi
3:53 PM92 °FSunny.10 mph31%29.82 "Hg10 mi
2:53 PM90 °FSunny.15 mph32%29.84 "Hg10 mi
1:53 PM88 °FSunny.12 mph35%29.86 "Hg10 mi
12:53 PM85 °FSunny.9 mph37%29.88 "Hg10 mi
11:53 AM82 °FSunny.12 mph43%29.90 "Hg10 mi
10:53 AM79 °FSunny.8 mph45%29.91 "Hg10 mi
Weather by CustomWeather, © 2015

See weather overviewHow to use our weather pages